This demonstration page uses our WeatherBlox Daily Observations layout. Learn more.

Left ArrowRight Arrow

38.88101, -77.10428

Hourly Observations for November 24, 2018

Temp ( °F °C ) Dew Point ( °F °C ) Humidity (%) Winds ( mph kmh ) Pressure ( in mb ) Visibility ( mi km ) Precip ( " mm )
12:18 am 00:18 Cloudy 34 1.1 17 -8.3 50 50 SSE 3 6 30.33 1027 10 16.0934 0 0
12:52 am 00:52 Cloudy 35 1.7 19 -7.2 52 52 SE 3 6 30.31 1027 10 16.0934 0 0
1:52 am 01:52 Cloudy 35 1.7 21 -6.1 57 57 ESE 3 6 30.29 1026 10 16.0934 0 0
2:31 am 02:31 Cloudy 35 1.7 21 -6.1 57 57 Calm 30.27 1025 10 16.0934 0 0
2:52 am 02:52 Cloudy 35 1.7 20 -6.7 54 54 ENE 5 7 30.27 1025 10 16.0934 0 0
3:11 am 03:11 Cloudy 35 1.7 19 -7.2 52 52 ENE 6 9 30.27 1025 10 16.0934 0 0
3:34 am 03:34 Cloudy 35 1.7 19 -7.2 52 52 NE 7 11 30.24 1024 10 16.0934 0 0
3:52 am 03:52 Cloudy 35 1.7 20 -6.7 54 54 NE 7 11 30.23 1024 10 16.0934 0 0
4:52 am 04:52 Cloudy 36 2.2 22 -5.6 57 57 NE 7 11 30.21 1023 10 16.0934 0 0
5:52 am 05:52 Cloudy 36 2.2 24 -4.4 62 62 NNE 7 11 30.17 1022 10 16.0934 0 0
6:22 am 06:22 Cloudy 37 2.8 26 -3.3 65 65 NNE 7 11 30.15 1021 10 16.0934 0 0
6:52 am 06:52 Cloudy 37 2.8 27 -2.8 67 67 NE 7 11 30.14 1021 10 16.0934 0 0
7:52 am 07:52 Cloudy 39 3.9 31 -0.6 73 73 NE 8 13 30.09 1019 10 16.0934 0 0
8:52 am 08:52 Cloudy 40 4.4 34 1.1 79 79 NE 8 13 30.05 1018 10 16.0934 0 0
9:52 am 09:52 Cloudy 42 5.6 35 1.7 76 76 NNE 8 13 30 1016 10 16.0934 0 0
10:52 am 10:52 Cloudy 44 6.7 37 2.8 76 76 NNE 9 15 29.96 1015 10 16.0934 0 0
11:52 am 11:52 Cloudy with Light Rain 46 7.8 40 4.4 79 79 NNE 6 9 29.92 1013 10 16.0934 0 0.0254
12:11 pm 12:11 Cloudy with Rain 46 7.8 41 5 83 83 NE 6 9 29.91 1013 4 6.43736 0.01 0.254
12:52 pm 12:52 Cloudy with Rain 45 7.2 41 5 86 86 NE 10 17 29.88 1012 3 4.82802 0.11 2.794
1:10 pm 13:10 Cloudy with Rain 44 6.7 41 5 89 89 NE 8 13 29.85 1011 5 8.0467 0.04 1.016
1:41 pm 13:41 Cloudy with Light Rain 44 6.7 40 4.4 85 85 NNE 10 17 29.83 1010 6 9.65604 0.08 2.032
1:52 pm 13:52 Cloudy with Rain 44 6.7 40 4.4 85 85 NNE 8 13 29.83 1010 4 6.43736 0.1 2.54
1:56 pm 13:56 Cloudy with Heavy Rain 44 6.7 40 4.4 85 85 NNE 8 13 29.83 1010 2.5 4.02335 0.01 0.254
2:04 pm 14:04 Cloudy with Heavy Rain 44 6.7 41 5 89 89 N 10 17 29.8 1009 1.5 2.41401 0.06 1.524
2:08 pm 14:08 Cloudy with Heavy Rain 44 6.7 41 5 89 89 N 9 15 29.8 1009 2.5 4.02335 0.09 2.286
2:12 pm 14:12 Cloudy with Rain 44 6.7 41 5 89 89 N 9 15 29.8 1009 3 4.82802 0.1 2.54
2:22 pm 14:22 Cloudy with Heavy Rain 44 6.7 41 5 89 89 N 9 15 29.8 1009 3 4.82802 0.14 3.556
2:42 pm 14:42 Cloudy with Heavy Rain 44 6.7 41 5 89 89 NNW 12 19 29.8 1009 2.5 4.02335 0.2 5.08
2:52 pm 14:52 Cloudy with Heavy Rain 44 6.7 41 5 89 89 NNW 7 11 29.78 1008 1.75 2.816345 0.26 6.604
3:12 pm 15:12 Cloudy with Heavy Rain 43 6.1 41 5 93 93 NW 10 17 29.77 1008 2 3.21868 0.18 4.572
3:16 pm 15:16 Cloudy with Heavy Rain 43 6.1 40 4.4 89 89 NW 14 22 29.77 1008 1.75 2.816345 0.21 5.334
3:20 pm 15:20 Cloudy with Heavy Rain 42 5.6 39 3.9 89 89 NW 15 24 29.77 1008 2 3.21868 0.24 6.096
3:25 pm 15:25 Cloudy with Heavy Rain 41 5 38 3.3 89 89 NW 16 26 29.8 1009 2.5 4.02335 0.26 6.604
3:27 pm 15:27 Cloudy with Heavy Rain 41 5 38 3.3 89 89 WNW 14 22 29.8 1009 3 4.82802 0.27 6.858
3:29 pm 15:29 Cloudy with Heavy Rain 41 5 38 3.3 89 89 WNW 14 22 29.8 1009 2.5 4.02335 0.28 7.112
3:35 pm 15:35 Cloudy with Heavy Rain 41 5 37 2.8 86 86 WNW 16 26 29.77 1008 3 4.82802 0.31 7.874
3:52 pm 15:52 Cloudy with Heavy Rain 40 4.4 36 2.2 86 86 NW 17 28 29.78 1008 3 4.82802 0.36 9.144
4:04 pm 16:04 Cloudy with Heavy Rain 40 4.4 36 2.2 86 86 NNW 14 22 29.77 1008 2.5 4.02335 0.06 1.524
4:19 pm 16:19 Cloudy with Heavy Rain 40 4.4 36 2.2 86 86 NNW 20 31 29.77 1008 3 4.82802 0.13 3.302
4:35 pm 16:35 Cloudy with Heavy Rain 41 5 37 2.8 86 86 NNW 16 26 29.74 1007 3 4.82802 0.19 4.826
4:52 pm 16:52 Cloudy with Rain 41 5 38 3.3 89 89 N 12 19 29.73 1007 5 8.0467 0.26 6.604
5:22 pm 17:22 Cloudy with Heavy Rain 44 6.7 41 5 89 89 N 12 19 29.74 1007 2.5 4.02335 0.09 2.286
5:27 pm 17:27 Cloudy with Heavy Rain 44 6.7 41 5 89 89 N 10 17 29.74 1007 1.75 2.816345 0.15 3.81
5:30 pm 17:30 Cloudy with Heavy Rain 44 6.7 41 5 89 89 N 12 19 29.74 1007 2 3.21868 0.18 4.572
5:33 pm 17:33 Cloudy with Heavy Rain 44 6.7 41 5 89 89 N 7 11 29.74 1007 2.5 4.02335 0.2 5.08
5:38 pm 17:38 Cloudy with Heavy Rain 44 6.7 41 5 89 89 N 7 11 29.74 1007 3 4.82802 0.22 5.588
5:52 pm 17:52 Cloudy with Rain 44 6.7 42 5.6 93 93 ENE 5 7 29.72 1007 4 6.43736 0.27 6.858
6:15 pm 18:15 Cloudy with Light Rain 45 7.2 43 6.1 93 93 NE 18 30 29.62 1003 8 12.87472 0.06 1.524
6:20 pm 18:20 Cloudy with Light Rain 45 7.2 42 5.6 90 90 ENE 20 31 29.62 1003 10 16.0934 0.06 1.524
6:52 pm 18:52 Mostly Cloudy 47 8.3 43 6.1 86 86 NW 6 9 29.67 1005 10 16.0934 0.06 1.524
7:52 pm 19:52 Mostly Cloudy 45 7.2 41 5 86 86 NW 12 19 29.69 1005 10 16.0934 0 0
8:00 pm 20:00 Mostly Cloudy 44 6.7 40 4.4 85 85 NW 13 20 29.71 1006 10 16.0934 0 0
8:04 pm 20:04 Mostly Cloudy 44 6.7 40 4.4 85 85 NW 13 20 29.68 1005 10 16.0934 0 0
8:52 pm 20:52 Cloudy 43 6.1 40 4.4 89 89 NW 13 20 29.72 1006 10 16.0934 0 0
9:52 pm 21:52 Cloudy 43 6.1 39 3.9 86 86 WNW 10 17 29.74 1007 10 16.0934 0 0
10:52 pm 22:52 Cloudy 43 6.1 39 3.9 86 86 NW 8 13 29.75 1008 10 16.0934 0 0
11:52 pm 23:52 Mostly Cloudy 41 5 37 2.8 86 86 NW 6 9 29.77 1008 10 16.0934 0 0
11:55 pm 23:55 Partly Cloudy 41 5 37 2.8 86 86 WNW 5 7 29.77 1008 10 16.0934 0 0

Powered by AerisWeather